| time (UTC) | temp F | wind direction | speed MPH | gust MPH | rain 1hr in | rain 24hr in | rain mn in | humidity % | barometer mb |
| 20260508175307 | 76 | 31 | 3.0 | 6.0 | 0.00 | 0.09 | 0.09 | 91 | 1011.8 |
| 20260508174805 | 76 | 98 | 4.0 | 6.0 | 0.00 | 0.09 | 0.09 | 92 | 1011.7 |
| 20260508174302 | 76 | 138 | 4.0 | 5.0 | 0.00 | 0.09 | 0.09 | 92 | 1011.7 |
| 20260508173758 | 76 | 23 | 1.0 | 6.0 | 0.00 | 0.09 | 0.09 | 92 | 1011.9 |
| 20260508173255 | 76 | 74 | 2.0 | 5.0 | 0.00 | 0.09 | 0.09 | 93 | 1012.1 |
| 20260508172751 | 75 | 58 | 3.0 | 7.0 | 0.00 | 0.09 | 0.09 | 94 | 1012.1 |
| 20260508172248 | 75 | 8 | 3.0 | 6.0 | 0.00 | 0.09 | 0.09 | 95 | 1012.0 |
| 20260508171745 | 75 | 31 | 3.0 | 5.0 | 0.00 | 0.09 | 0.09 | 95 | 1012.1 |
| 20260508171241 | 74 | 59 | 3.0 | 6.0 | 0.00 | 0.09 | 0.09 | 95 | 1012.3 |
| 20260508170738 | 74 | 23 | 5.0 | 8.0 | 0.00 | 0.09 | 0.09 | 95 | 1012.3 |
| 20260508170236 | 73 | 333 | 2.0 | 6.0 | 0.00 | 0.09 | 0.09 | 96 | 1012.4 |
| 20260508165732 | 73 | 22 | 4.0 | 6.0 | 0.00 | 0.09 | 0.09 | 96 | 1012.6 |
| 20260508165230 | 73 | 65 | 4.0 | 6.0 | 0.00 | 0.09 | 0.09 | 96 | 1012.7 |
| 20260508164726 | 73 | 34 | 4.0 | 5.0 | 0.00 | 0.09 | 0.09 | 96 | 1012.8 |
| 20260508164222 | 72 | 339 | 4.0 | 7.0 | 0.00 | 0.09 | 0.09 | 96 | 1012.8 |
| 20260508163720 | 73 | 352 | 4.0 | 5.0 | 0.00 | 0.09 | 0.09 | 96 | 1012.8 |
| 20260508163218 | 73 | 358 | 2.0 | 6.0 | 0.00 | 0.09 | 0.09 | 96 | 1012.8 |
| 20260508162713 | 72 | 26 | 3.0 | 5.0 | 0.00 | 0.09 | 0.09 | 96 | 1012.9 |
| 20260508162211 | 72 | 27 | 7.0 | 9.0 | 0.00 | 0.09 | 0.09 | 96 | 1013.0 |
| 20260508161708 | 72 | 10 | 3.0 | 6.0 | 0.00 | 0.09 | 0.09 | 96 | 1013.2 |
| 20260508161205 | 72 | 359 | 0.0 | 6.0 | 0.00 | 0.09 | 0.09 | 96 | 1013.0 |
| 20260508160703 | 72 | 344 | 5.0 | 7.0 | 0.00 | 0.09 | 0.09 | 96 | 1013.1 |
| 20260508160201 | 72 | 326 | 3.0 | 8.0 | 0.00 | 0.09 | 0.09 | 96 | 1013.3 |
| 20260508155657 | 72 | 342 | 4.0 | 6.0 | 0.00 | 0.09 | 0.09 | 96 | 1013.1 |
| 20260508155154 | 73 | 4 | 2.0 | 4.0 | 0.00 | 0.09 | 0.09 | 96 | 1013.2 |
| 20260508154651 | 73 | 5 | 2.0 | 7.0 | 0.00 | 0.09 | 0.09 | 96 | 1013.0 |
| 20260508154148 | 73 | 53 | 3.0 | 5.0 | 0.00 | 0.09 | 0.09 | 97 | 1013.1 |
| 20260508153645 | 73 | 55 | 3.0 | 4.0 | 0.00 | 0.09 | 0.09 | 97 | 1013.2 |
| 20260508153142 | 72 | 42 | 4.0 | 4.0 | 0.00 | 0.09 | 0.09 | 97 | 1013.2 |
| 20260508152638 | 72 | 19 | 2.0 | 4.0 | 0.00 | 0.09 | 0.09 | 97 | 1013.3 |
| 20260508152134 | 72 | 339 | 3.0 | 5.0 | 0.00 | 0.09 | 0.09 | 97 | 1013.5 |
| 20260508151631 | 72 | 328 | 4.0 | 4.0 | 0.00 | 0.09 | 0.09 | 97 | 1013.4 |
| 20260508151127 | 72 | 11 | 2.0 | 6.0 | 0.00 | 0.09 | 0.09 | 97 | 1013.5 |
| 20260508150618 | 72 | 337 | 4.0 | 5.0 | 0.00 | 0.09 | 0.09 | 97 | 1013.5 |
| 20260508150114 | 73 | 341 | 2.0 | 2.0 | 0.00 | 0.09 | 0.09 | 98 | 1013.5 |
| 20260508145605 | 72 | 88 | 0.0 | 3.0 | 0.00 | 0.09 | 0.09 | 98 | 1013.2 |
| 20260508145102 | 72 | 115 | 2.0 | 2.0 | 0.00 | 0.09 | 0.09 | 98 | 1013.2 |
| 20260508144600 | 72 | 284 | 2.0 | 3.0 | 0.00 | 0.09 | 0.09 | 98 | 1013.4 |
| 20260508144057 | 72 | 142 | 1.0 | 3.0 | 0.00 | 0.09 | 0.09 | 98 | 1013.2 |
| 20260508143554 | 71 | 136 | 3.0 | 5.0 | 0.00 | 0.09 | 0.09 | 98 | 1012.9 |
| 20260508143051 | 71 | 133 | 4.0 | 8.0 | 0.00 | 0.09 | 0.09 | 98 | 1012.9 |
| 20260508142548 | 71 | 109 | 2.0 | 6.0 | 0.00 | 0.09 | 0.09 | 98 | 1012.8 |
| 20260508142044 | 71 | 105 | 3.0 | 4.0 | 0.00 | 0.09 | 0.09 | 98 | 1012.8 |
| 20260508141540 | 71 | 115 | 2.0 | 3.0 | 0.00 | 0.09 | 0.09 | 98 | 1012.7 |
| 20260508141033 | 71 | 120 | 1.0 | 5.0 | 0.00 | 0.09 | 0.09 | 98 | 1012.9 |
| 20260508140530 | 70 | 75 | 0.0 | 4.0 | 0.00 | 0.09 | 0.09 | 98 | 1013.1 |
| 20260508140026 | 70 | 65 | 2.0 | 5.0 | 0.00 | 0.09 | 0.09 | 98 | 1012.8 |
| 20260508135522 | 70 | 70 | 3.0 | 5.0 | 0.00 | 0.09 | 0.09 | 98 | 1013.1 |
| 20260508135018 | 70 | 119 | 0.0 | 3.0 | 0.00 | 0.09 | 0.09 | 98 | 1013.1 |
| 20260508134515 | 70 | 8 | 1.0 | 4.0 | 0.00 | 0.09 | 0.09 | 98 | 1013.1 |
| 20260508134012 | 70 | 56 | 2.0 | 6.0 | 0.00 | 0.09 | 0.09 | 98 | 1013.1 |
| 20260508133509 | 70 | 35 | 2.0 | 6.0 | 0.00 | 0.09 | 0.09 | 99 | 1013.3 |
| 20260508133006 | 70 | 127 | 2.0 | 3.0 | 0.00 | 0.09 | 0.09 | 99 | 1013.1 |
| 20260508132504 | 70 | 317 | 0.0 | 3.0 | 0.00 | 0.09 | 0.09 | 99 | 1013.2 |
| 20260508132000 | 70 | 353 | 2.0 | 5.0 | 0.00 | 0.09 | 0.09 | 99 | 1013.3 |
| 20260508131455 | 70 | 353 | 4.0 | 4.0 | 0.00 | 0.09 | 0.09 | 99 | 1013.3 |
| 20260508130952 | 70 | 86 | 2.0 | 2.0 | 0.00 | 0.09 | 0.09 | 99 | 1013.4 |
| 20260508130450 | 70 | 347 | 2.0 | 3.0 | 0.00 | 0.09 | 0.09 | 99 | 1013.5 |
| 20260508125945 | 70 | 351 | 3.0 | 4.0 | 0.00 | 0.09 | 0.09 | 99 | 1013.5 |
| 20260508125441 | 70 | 340 | 0.0 | 6.0 | 0.00 | 0.09 | 0.09 | 99 | 1013.2 |
| 20260508124939 | 70 | 359 | 3.0 | 6.0 | 0.00 | 0.09 | 0.09 | 99 | 1013.4 |
| 20260508124437 | 70 | 4 | 3.0 | 6.0 | 0.00 | 0.09 | 0.09 | 99 | 1013.4 |
| 20260508123934 | 70 | 348 | 4.0 | 8.0 | 0.00 | 0.09 | 0.09 | 99 | 1013.3 |
| 20260508123433 | 70 | 351 | 6.0 | 7.0 | 0.00 | 0.09 | 0.09 | 99 | 1013.4 |
| 20260508122929 | 70 | 326 | 5.0 | 7.0 | 0.00 | 0.09 | 0.09 | 99 | 1013.4 |
| 20260508122426 | 70 | 340 | 4.0 | 7.0 | 0.00 | 0.09 | 0.09 | 99 | 1013.2 |
| 20260508121923 | 70 | 335 | 4.0 | 6.0 | 0.00 | 0.09 | 0.09 | 99 | 1013.0 |
| 20260508121421 | 70 | 355 | 3.0 | 6.0 | 0.00 | 0.09 | 0.09 | 99 | 1012.9 |
| 20260508120919 | 70 | 324 | 3.0 | 6.0 | 0.00 | 0.09 | 0.09 | 99 | 1012.8 |
| 20260508120416 | 70 | 1 | 3.0 | 7.0 | 0.00 | 0.09 | 0.09 | 99 | 1012.9 |
| 20260508115914 | 70 | 340 | 3.0 | 5.0 | 0.00 | 0.09 | 0.09 | 99 | 1012.6 |
| 20260508115412 | 70 | 21 | 1.0 | 9.0 | 0.00 | 0.09 | 0.09 | 99 | 1012.7 |
| 20260508114907 | 70 | 280 | 2.0 | 3.0 | 0.00 | 0.09 | 0.09 | 99 | 1012.8 |
| 20260508114404 | 70 | 342 | 4.0 | 5.0 | 0.00 | 0.09 | 0.09 | 99 | 1012.7 |
| 20260508113901 | 70 | 331 | 4.0 | 6.0 | 0.00 | 0.09 | 0.09 | 99 | 1012.7 |
| 20260508113359 | 70 | 323 | 2.0 | 6.0 | 0.00 | 0.09 | 0.09 | 99 | 1012.3 |
| 20260508112856 | 70 | 323 | 3.0 | 4.0 | 0.00 | 0.09 | 0.09 | 99 | 1012.2 |
| 20260508112353 | 70 | 105 | 2.0 | 2.0 | 0.00 | 0.09 | 0.09 | 99 | 1012.3 |
| 20260508111849 | 70 | 331 | 1.0 | 2.0 | 0.00 | 0.09 | 0.09 | 99 | 1012.5 |
| 20260508111346 | 70 | 340 | 1.0 | 3.0 | 0.00 | 0.09 | 0.09 | 99 | 1012.4 |
| 20260508110843 | 70 | 269 | 2.0 | 3.0 | 0.00 | 0.09 | 0.09 | 99 | 1012.7 |
| 20260508110341 | 70 | 315 | 3.0 | 3.0 | 0.00 | 0.09 | 0.09 | 99 | 1012.9 |
| 20260508105840 | 70 | 303 | 3.0 | 4.0 | 0.00 | 0.09 | 0.09 | 99 | 1012.9 |
| 20260508105338 | 70 | 316 | 3.0 | 4.0 | 0.00 | 0.09 | 0.09 | 99 | 1012.8 |
| 20260508104835 | 70 | 339 | 3.0 | 6.0 | 0.00 | 0.09 | 0.09 | 99 | 1012.9 |
| 20260508104331 | 70 | 342 | 3.0 | 6.0 | 0.02 | 0.09 | 0.09 | 99 | 1012.9 |
| 20260508103829 | 70 | 313 | 3.0 | 4.0 | 0.02 | 0.09 | 0.09 | 99 | 1012.7 |
| 20260508103325 | 70 | 320 | 6.0 | 6.0 | 0.00 | 0.09 | 0.09 | 99 | 1012.6 |
| 20260508102823 | 70 | 324 | 4.0 | 7.0 | 0.02 | 0.09 | 0.09 | 99 | 1012.5 |
| 20260508102321 | 70 | 318 | 2.0 | 3.0 | 0.05 | 0.09 | 0.09 | 99 | 1012.4 |
| 20260508101818 | 70 | 340 | 2.0 | 3.0 | 0.05 | 0.09 | 0.09 | 99 | 1012.0 |
| 20260508101315 | 70 | 52 | 2.0 | 2.0 | 0.02 | 0.08 | 0.08 | 99 | 1011.9 |
| 20260508100812 | 70 | 12 | 1.0 | 3.0 | 0.00 | 0.08 | 0.08 | 99 | 1012.4 |
| 20260508100311 | 70 | 313 | 0.0 | 3.0 | 0.00 | 0.08 | 0.08 | 99 | 1012.3 |
| 20260508095806 | 70 | 9 | 1.0 | 2.0 | 0.00 | 0.08 | 0.08 | 99 | 1012.4 |
| 20260508095306 | 70 | 321 | 4.0 | 4.0 | 0.00 | 0.08 | 0.08 | 99 | 1012.6 |
| 20260508094800 | 70 | 330 | 3.0 | 4.0 | 0.00 | 0.08 | 0.08 | 99 | 1012.5 |
| 20260508094258 | 71 | 347 | 4.0 | 6.0 | 0.00 | 0.08 | 0.08 | 99 | 1012.9 |
| 20260508093755 | 71 | 288 | 2.0 | 3.0 | 0.00 | 0.08 | 0.08 | 99 | 1012.8 |
| 20260508093252 | 71 | 320 | 5.0 | 6.0 | 0.00 | 0.08 | 0.08 | 99 | 1012.7 |
| 20260508092749 | 71 | 295 | 6.0 | 8.0 | 0.00 | 0.08 | 0.08 | 99 | 1012.5 |
| 20260508092247 | 71 | 334 | 5.0 | 6.0 | 0.00 | 0.08 | 0.08 | 99 | 1012.5 |
| 20260508091745 | 71 | 310 | 3.0 | 7.0 | 0.00 | 0.08 | 0.08 | 99 | 1012.4 |
| 20260508091242 | 71 | 310 | 3.0 | 6.0 | 0.00 | 0.08 | 0.08 | 99 | 1012.1 |
| 20260508090739 | 71 | 329 | 3.0 | 4.0 | 0.00 | 0.08 | 0.08 | 99 | 1011.8 |
| 20260508090237 | 71 | 343 | 4.0 | 5.0 | 0.00 | 0.08 | 0.08 | 99 | 1011.8 |
| 20260508085732 | 71 | 333 | 4.0 | 6.0 | 0.00 | 0.08 | 0.08 | 99 | 1011.9 |
| 20260508085230 | 71 | 330 | 3.0 | 4.0 | 0.00 | 0.08 | 0.08 | 99 | 1012.5 |
| 20260508084725 | 71 | 359 | 6.0 | 8.0 | 0.00 | 0.08 | 0.08 | 99 | 1011.9 |
| 20260508084223 | 72 | 344 | 3.0 | 6.0 | 0.00 | 0.08 | 0.08 | 99 | 1012.0 |
| 20260508083721 | 72 | 309 | 4.0 | 6.0 | 0.00 | 0.08 | 0.08 | 99 | 1012.2 |
| 20260508083218 | 72 | 331 | 3.0 | 6.0 | 0.00 | 0.08 | 0.08 | 99 | 1012.5 |
| 20260508082713 | 72 | 355 | 4.0 | 6.0 | 0.00 | 0.08 | 0.08 | 99 | 1012.3 |
| 20260508082211 | 72 | 354 | 1.0 | 3.0 | 0.00 | 0.08 | 0.08 | 99 | 1012.6 |
| 20260508081708 | 73 | 341 | 0.0 | 4.0 | 0.00 | 0.08 | 0.08 | 99 | 1013.0 |
| 20260508081204 | 73 | 348 | 2.0 | 5.0 | 0.00 | 0.08 | 0.08 | 99 | 1012.9 |
| 20260508080702 | 73 | 320 | 1.0 | 3.0 | 0.00 | 0.08 | 0.08 | 99 | 1013.1 |
| 20260508080200 | 73 | 342 | 3.0 | 5.0 | 0.00 | 0.08 | 0.08 | 99 | 1013.0 |
| 20260508075656 | 73 | 6 | 2.0 | 5.0 | 0.00 | 0.08 | 0.08 | 99 | 1012.5 |
| 20260508075153 | 73 | 340 | 6.0 | 6.0 | 0.00 | 0.08 | 0.08 | 99 | 1012.3 |
| 20260508074651 | 73 | 20 | 2.0 | 3.0 | 0.00 | 0.08 | 0.08 | 99 | 1012.7 |
| 20260508074148 | 73 | 351 | 2.0 | 4.0 | 0.00 | 0.08 | 0.08 | 99 | 1012.8 |
| 20260508073645 | 73 | 345 | 3.0 | 6.0 | 0.00 | 0.08 | 0.08 | 99 | 1012.5 |
| 20260508073143 | 73 | 352 | 2.0 | 4.0 | 0.00 | 0.08 | 0.08 | 99 | 1012.3 |
| 20260508072638 | 73 | 12 | 2.0 | 4.0 | 0.00 | 0.08 | 0.08 | 99 | 1012.6 |
| 20260508072135 | 73 | 34 | 1.0 | 5.0 | 0.00 | 0.08 | 0.08 | 98 | 1012.6 |
| 20260508071633 | 73 | 58 | 2.0 | 3.0 | 0.00 | 0.08 | 0.08 | 98 | 1012.8 |
| 20260508071131 | 73 | 13 | 3.0 | 3.0 | 0.00 | 0.08 | 0.08 | 98 | 1013.1 |
| 20260508070628 | 73 | 68 | 0.0 | 4.0 | 0.00 | 0.08 | 0.08 | 98 | 1013.4 |
| 20260508070127 | 73 | 80 | 2.0 | 3.0 | 0.00 | 0.08 | 0.08 | 98 | 1013.8 |
| 20260508065624 | 73 | 67 | 2.0 | 3.0 | 0.00 | 0.08 | 0.08 | 98 | 1013.6 |
| 20260508065122 | 73 | 100 | 1.0 | 3.0 | 0.00 | 0.08 | 0.08 | 98 | 1013.9 |
| 20260508064619 | 73 | 57 | 0.0 | 3.0 | 0.00 | 0.08 | 0.08 | 98 | 1013.5 |
| 20260508064117 | 73 | 140 | 2.0 | 4.0 | 0.02 | 0.08 | 0.08 | 98 | 1013.5 |
| 20260508063614 | 73 | 134 | 0.0 | 4.0 | 0.02 | 0.07 | 0.07 | 98 | 1013.3 |
| 20260508063112 | 73 | 4 | 1.0 | 4.0 | 0.05 | 0.07 | 0.07 | 98 | 1013.5 |
| 20260508062609 | 73 | 331 | 0.0 | 3.0 | 0.09 | 0.07 | 0.07 | 98 | 1013.7 |
| 20260508062106 | 73 | 137 | 4.0 | 8.0 | 0.14 | 0.07 | 0.07 | 98 | 1013.4 |
| 20260508061604 | 73 | 133 | 9.0 | 10.0 | 0.19 | 0.06 | 0.06 | 98 | 1013.7 |
| 20260508061101 | 73 | 132 | 6.0 | 7.0 | 0.14 | 0.04 | 0.04 | 98 | 1014.1 |
| 20260508060558 | 72 | 71 | 2.0 | 3.0 | 0.14 | 0.03 | 0.03 | 98 | 1014.5 |
| 20260508060055 | 72 | 228 | 0.0 | 1.0 | 0.07 | 0.02 | 0.02 | 98 | 1015.1 |
| 20260508055550 | 73 | 309 | 1.0 | 5.0 | 0.05 | 0.01 | 0.01 | 98 | 1015.7 |
| 20260508055048 | 73 | 240 | 2.0 | 5.0 | 0.02 | 0.00 | 0.00 | 98 | 1015.8 |
| 20260508054544 | 73 | 261 | 4.0 | 4.0 | 0.00 | 0.00 | 0.00 | 98 | 1015.7 |
| 20260508054041 | 73 | 231 | 4.0 | 5.0 | 0.00 | 0.00 | 0.00 | 98 | 1015.9 |
| 20260508053538 | 72 | 233 | 6.0 | 6.0 | 0.00 | 0.00 | 0.00 | 98 | 1016.0 |
| 20260508053036 | 72 | 229 | 3.0 | 5.0 | 0.00 | 0.00 | 0.00 | 97 | 1015.4 |
| 20260508052533 | 72 | 146 | 0.0 | 2.0 | 0.00 | 0.00 | 0.00 | 97 | 1014.5 |
| 20260508052030 | 72 | 135 | 2.0 | 2.0 | 0.00 | 0.00 | 0.00 | 97 | 1013.9 |
| 20260508051526 | 72 | 33 | 3.0 | 5.0 | 0.00 | 0.00 | 0.00 | 97 | 1013.7 |
| 20260508051021 | 72 | 340 | 2.0 | 5.0 | 0.00 | 0.00 | 0.00 | 97 | 1013.6 |
| 20260508050518 | 72 | 103 | 4.0 | 5.0 | 0.00 | 0.00 | 0.00 | 97 | 1013.3 |
| 20260508050016 | 72 | 113 | 5.0 | 5.0 | 0.00 | 0.01 | 0.01 | 97 | 1013.5 |
| 20260508045512 | 72 | 73 | 3.0 | 6.0 | 0.00 | 0.01 | 0.01 | 97 | 1014.1 |
| 20260508045009 | 71 | 98 | 5.0 | 8.0 | 0.00 | 0.01 | 0.01 | 96 | 1014.1 |
| 20260508044506 | 71 | 60 | 2.0 | 7.0 | 0.00 | 0.01 | 0.01 | 96 | 1013.9 |
| 20260508044001 | 71 | 26 | 2.0 | 9.0 | 0.00 | 0.01 | 0.01 | 96 | 1013.8 |
| 20260508043454 | 71 | 48 | 4.0 | 6.0 | 0.00 | 0.01 | 0.01 | 96 | 1013.8 |
| 20260508042949 | 72 | 55 | 2.0 | 8.0 | 0.00 | 0.01 | 0.01 | 95 | 1013.9 |
| 20260508042448 | 72 | 72 | 3.0 | 6.0 | 0.02 | 0.01 | 0.01 | 95 | 1013.8 |
| 20260508041944 | 71 | 130 | 2.0 | 5.0 | 0.02 | 0.01 | 0.01 | 95 | 1013.7 |
| 20260508041441 | 71 | 16 | 1.0 | 4.0 | 0.00 | 0.00 | 0.00 | 95 | 1014.0 |
| 20260508040937 | 71 | 53 | 5.0 | 10.0 | 0.02 | 0.00 | 0.00 | 94 | 1014.1 |
| 20260508040435 | 72 | 61 | 3.0 | 6.0 | 0.02 | 0.00 | 0.00 | 94 | 1014.0 |
| 20260508035933 | 72 | 28 | 2.0 | 6.0 | 0.00 | 0.00 | 0.00 | 93 | 1014.0 |
| 20260508035429 | 72 | 35 | 6.0 | 7.0 | 0.00 | 0.00 | 0.00 | 93 | 1013.9 |
| 20260508034926 | 72 | 50 | 5.0 | 8.0 | 0.00 | 0.00 | 0.00 | 93 | 1014.2 |
| 20260508034424 | 72 | 57 | 5.0 | 8.0 | 0.00 | 0.00 | 0.00 | 92 | 1014.6 |
| 20260508033920 | 72 | 356 | 4.0 | 6.0 | 0.00 | 0.00 | 0.00 | 92 | 1014.3 |
| 20260508033418 | 72 | 48 | 3.0 | 5.0 | 0.00 | 0.00 | 0.00 | 92 | 1014.4 |
| 20260508032915 | 72 | 46 | 4.0 | 5.0 | 0.00 | 0.00 | 0.00 | 92 | 1014.4 |
| 20260508032413 | 72 | 80 | 5.0 | 9.0 | 0.00 | 0.00 | 0.00 | 92 | 1014.3 |
| 20260508031909 | 72 | 306 | 2.0 | 7.0 | 0.00 | 0.00 | 0.00 | 92 | 1014.3 |
| 20260508031407 | 72 | 32 | 3.0 | 4.0 | 0.00 | 0.00 | 0.00 | 92 | 1014.3 |
| 20260508030902 | 72 | 56 | 2.0 | 5.0 | 0.00 | 0.00 | 0.00 | 91 | 1014.2 |
| 20260508030359 | 72 | 19 | 5.0 | 6.0 | 0.00 | 0.00 | 0.00 | 91 | 1014.1 |
| 20260508025857 | 72 | 51 | 2.0 | 5.0 | 0.00 | 0.00 | 0.00 | 91 | 1014.0 |
| 20260508025353 | 72 | 44 | 5.0 | 12.0 | 0.00 | 0.00 | 0.00 | 91 | 1013.9 |
| 20260508024850 | 72 | 67 | 6.0 | 13.0 | 0.00 | 0.00 | 0.00 | 91 | 1013.6 |
| 20260508024346 | 72 | 41 | 5.0 | 9.0 | 0.00 | 0.00 | 0.00 | 91 | 1013.7 |
| 20260508023838 | 72 | 72 | 5.0 | 6.0 | 0.00 | 0.00 | 0.00 | 90 | 1013.8 |
| 20260508023335 | 72 | 71 | 6.0 | 10.0 | 0.00 | 0.00 | 0.00 | 90 | 1014.0 |
| 20260508022831 | 72 | 43 | 6.0 | 8.0 | 0.00 | 0.00 | 0.00 | 90 | 1014.0 |
| 20260508022327 | 72 | 16 | 4.0 | 10.0 | 0.00 | 0.00 | 0.00 | 90 | 1014.1 |
| 20260508021824 | 72 | 36 | 5.0 | 11.0 | 0.00 | 0.00 | 0.00 | 90 | 1014.1 |
| 20260508021320 | 72 | 46 | 4.0 | 9.0 | 0.00 | 0.00 | 0.00 | 90 | 1014.3 |
| 20260508020816 | 72 | 39 | 4.0 | 10.0 | 0.00 | 0.00 | 0.00 | 90 | 1014.0 |
| 20260508020314 | 72 | 358 | 2.0 | 10.0 | 0.00 | 0.00 | 0.00 | 90 | 1014.1 |
| 20260508015811 | 72 | 24 | 5.0 | 12.0 | 0.00 | 0.00 | 0.00 | 90 | 1013.7 |
| 20260508015309 | 72 | 48 | 7.0 | 11.0 | 0.00 | 0.00 | 0.00 | 90 | 1013.7 |
| 20260508014805 | 72 | 30 | 2.0 | 6.0 | 0.00 | 0.00 | 0.00 | 90 | 1013.8 |
| 20260508014302 | 73 | 9 | 4.0 | 14.0 | 0.00 | 0.00 | 0.00 | 89 | 1013.5 |
| 20260508013757 | 73 | 26 | 2.0 | 13.0 | 0.00 | 0.00 | 0.00 | 89 | 1013.8 |
| 20260508013254 | 73 | 24 | 4.0 | 9.0 | 0.00 | 0.00 | 0.00 | 89 | 1013.7 |
| 20260508012752 | 73 | 22 | 5.0 | 11.0 | 0.00 | 0.00 | 0.00 | 89 | 1013.5 |
| 20260508012249 | 73 | 49 | 7.0 | 12.0 | 0.00 | 0.00 | 0.00 | 89 | 1013.5 |
| 20260508011747 | 73 | 45 | 6.0 | 12.0 | 0.00 | 0.00 | 0.00 | 88 | 1013.8 |
| 20260508011244 | 73 | 5 | 4.0 | 6.0 | 0.00 | 0.00 | 0.00 | 88 | 1013.7 |
| 20260508010741 | 73 | 36 | 2.0 | 6.0 | 0.00 | 0.00 | 0.00 | 88 | 1013.2 |
| 20260508010239 | 73 | 355 | 4.0 | 9.0 | 0.00 | 0.00 | 0.00 | 88 | 1013.1 |
| 20260508005735 | 73 | 18 | 4.0 | 6.0 | 0.00 | 0.00 | 0.00 | 89 | 1012.9 |
| 20260508005232 | 73 | 53 | 6.0 | 12.0 | 0.00 | 0.00 | 0.00 | 89 | 1012.9 |
| 20260508004727 | 73 | 55 | 7.0 | 15.0 | 0.00 | 0.00 | 0.00 | 88 | 1012.8 |
| 20260508004224 | 73 | 62 | 4.0 | 13.0 | 0.00 | 0.00 | 0.00 | 87 | 1012.9 |
| 20260508003721 | 74 | 50 | 3.0 | 11.0 | 0.00 | 0.00 | 0.00 | 87 | 1012.7 |
| 20260508003219 | 74 | 15 | 5.0 | 10.0 | 0.00 | 0.00 | 0.00 | 86 | 1013.0 |
| 20260508002715 | 74 | 41 | 3.0 | 8.0 | 0.00 | 0.00 | 0.00 | 87 | 1013.1 |
| 20260508002212 | 74 | 82 | 4.0 | 10.0 | 0.00 | 0.00 | 0.00 | 87 | 1013.2 |
| 20260508001707 | 74 | 108 | 7.0 | 9.0 | 0.00 | 0.00 | 0.00 | 86 | 1013.2 |
| 20260508001158 | 74 | 337 | 5.0 | 11.0 | 0.00 | 0.00 | 0.00 | 86 | 1013.3 |
| 20260508000654 | 74 | 48 | 5.0 | 10.0 | 0.00 | 0.00 | 0.00 | 86 | 1013.1 |
| 20260508000152 | 74 | 29 | 7.0 | 11.0 | 0.00 | 0.00 | 0.00 | 85 | 1012.8 |
| 20260507235648 | 74 | 7 | 6.0 | 11.0 | 0.00 | 0.00 | 0.00 | 85 | 1012.8 |
| 20260507235145 | 75 | 352 | 4.0 | 10.0 | 0.00 | 0.00 | 0.00 | 85 | 1012.5 |
| 20260507234642 | 75 | 3 | 6.0 | 8.0 | 0.00 | 0.00 | 0.00 | 84 | 1012.8 |
| 20260507234138 | 75 | 42 | 7.0 | 13.0 | 0.00 | 0.00 | 0.00 | 84 | 1012.4 |
| 20260507233635 | 75 | 50 | 4.0 | 7.0 | 0.00 | 0.00 | 0.00 | 84 | 1012.3 |
| 20260507233133 | 75 | 60 | 3.0 | 10.0 | 0.00 | 0.00 | 0.00 | 84 | 1012.2 |
| 20260507232629 | 75 | 15 | 5.0 | 9.0 | 0.00 | 0.00 | 0.00 | 84 | 1012.4 |
| 20260507232127 | 75 | 27 | 3.0 | 9.0 | 0.00 | 0.00 | 0.00 | 84 | 1012.4 |
| 20260507231623 | 75 | 31 | 6.0 | 8.0 | 0.00 | 0.00 | 0.00 | 84 | 1012.3 |
| 20260507231120 | 75 | 52 | 3.0 | 7.0 | 0.00 | 0.00 | 0.00 | 84 | 1012.3 |
| 20260507230616 | 75 | 347 | 3.0 | 12.0 | 0.00 | 0.00 | 0.00 | 84 | 1012.2 |
| 20260507230114 | 75 | 75 | 4.0 | 6.0 | 0.00 | 0.00 | 0.00 | 83 | 1012.4 |
| 20260507225609 | 75 | 291 | 2.0 | 7.0 | 0.00 | 0.00 | 0.00 | 83 | 1012.5 |
| 20260507225106 | 75 | 27 | 4.0 | 11.0 | 0.00 | 0.00 | 0.00 | 83 | 1012.4 |
| 20260507224601 | 76 | 21 | 5.0 | 9.0 | 0.00 | 0.00 | 0.00 | 84 | 1012.5 |
| 20260507224058 | 76 | 22 | 4.0 | 8.0 | 0.00 | 0.00 | 0.00 | 83 | 1012.7 |
| 20260507223554 | 76 | 25 | 2.0 | 7.0 | 0.00 | 0.00 | 0.00 | 83 | 1012.7 |
| 20260507223051 | 76 | 40 | 6.0 | 9.0 | 0.00 | 0.00 | 0.00 | 83 | 1012.8 |
| 20260507222549 | 76 | 52 | 6.0 | 7.0 | 0.00 | 0.00 | 0.00 | 83 | 1012.6 |
| 20260507222045 | 76 | 48 | 6.0 | 6.0 | 0.00 | 0.00 | 0.00 | 83 | 1012.7 |
| 20260507221541 | 76 | 29 | 5.0 | 10.0 | 0.00 | 0.00 | 0.00 | 83 | 1012.7 |
| 20260507221038 | 76 | 34 | 3.0 | 7.0 | 0.00 | 0.00 | 0.00 | 83 | 1012.5 |
| 20260507220535 | 76 | 359 | 6.0 | 10.0 | 0.00 | 0.00 | 0.00 | 83 | 1012.5 |
| 20260507220033 | 76 | 31 | 4.0 | 10.0 | 0.00 | 0.00 | 0.00 | 83 | 1012.4 |
| 20260507215529 | 77 | 56 | 4.0 | 10.0 | 0.00 | 0.00 | 0.00 | 82 | 1012.7 |
| 20260507215027 | 77 | 25 | 4.0 | 5.0 | 0.00 | 0.00 | 0.00 | 83 | 1012.4 |
| 20260507214524 | 77 | 54 | 5.0 | 7.0 | 0.00 | 0.00 | 0.00 | 82 | 1012.6 |
| 20260507214020 | 77 | 41 | 4.0 | 6.0 | 0.00 | 0.00 | 0.00 | 83 | 1012.8 |
| 20260507213516 | 77 | 78 | 0.0 | 9.0 | 0.00 | 0.00 | 0.00 | 83 | 1012.6 |
| 20260507213013 | 77 | 31 | 8.0 | 9.0 | 0.00 | 0.00 | 0.00 | 81 | 1012.5 |
| 20260507212509 | 77 | 76 | 7.0 | 10.0 | 0.00 | 0.00 | 0.00 | 81 | 1012.5 |
| 20260507212006 | 78 | 113 | 8.0 | 8.0 | 0.00 | 0.00 | 0.00 | 81 | 1012.5 |
| 20260507211502 | 78 | 337 | 3.0 | 10.0 | 0.00 | 0.00 | 0.00 | 81 | 1012.6 |
| 20260507210959 | 77 | 35 | 8.0 | 14.0 | 0.00 | 0.00 | 0.00 | 81 | 1012.7 |
| 20260507210456 | 78 | 35 | 4.0 | 13.0 | 0.00 | 0.00 | 0.00 | 81 | 1012.6 |
| 20260507205953 | 78 | 21 | 3.0 | 11.0 | 0.00 | 0.00 | 0.00 | 81 | 1012.4 |
| 20260507205450 | 78 | 334 | 4.0 | 11.0 | 0.00 | 0.00 | 0.00 | 80 | 1012.7 |
| 20260507204946 | 79 | 33 | 2.0 | 10.0 | 0.00 | 0.00 | 0.00 | 79 | 1012.7 |
| 20260507204442 | 79 | 338 | 3.0 | 8.0 | 0.00 | 0.00 | 0.00 | 79 | 1012.9 |
| 20260507203940 | 79 | 32 | 6.0 | 10.0 | 0.00 | 0.00 | 0.00 | 79 | 1012.9 |
| 20260507203438 | 79 | 21 | 4.0 | 11.0 | 0.00 | 0.00 | 0.00 | 79 | 1013.0 |
| 20260507202934 | 79 | 23 | 5.0 | 13.0 | 0.00 | 0.00 | 0.00 | 79 | 1013.0 |
| 20260507202431 | 79 | 308 | 4.0 | 9.0 | 0.00 | 0.00 | 0.00 | 79 | 1013.2 |
| 20260507201926 | 79 | 44 | 9.0 | 11.0 | 0.00 | 0.00 | 0.00 | 78 | 1013.2 |
| 20260507201416 | 79 | 48 | 3.0 | 8.0 | 0.00 | 0.00 | 0.00 | 79 | 1013.3 |
| 20260507200913 | 79 | 35 | 3.0 | 10.0 | 0.00 | 0.00 | 0.00 | 80 | 1013.3 |
| 20260507200409 | 78 | 18 | 6.0 | 8.0 | 0.00 | 0.00 | 0.00 | 80 | 1013.4 |
| 20260507195905 | 78 | 358 | 5.0 | 10.0 | 0.00 | 0.00 | 0.00 | 81 | 1013.7 |
| 20260507195403 | 78 | 66 | 5.0 | 11.0 | 0.00 | 0.00 | 0.00 | 81 | 1013.7 |
| 20260507194859 | 78 | 35 | 5.0 | 11.0 | 0.00 | 0.00 | 0.00 | 81 | 1013.8 |
| 20260507194356 | 78 | 8 | 2.0 | 10.0 | 0.00 | 0.00 | 0.00 | 81 | 1013.6 |
| 20260507193852 | 78 | 3 | 4.0 | 7.0 | 0.00 | 0.00 | 0.00 | 81 | 1013.8 |
| 20260507193349 | 78 | 72 | 5.0 | 8.0 | 0.00 | 0.00 | 0.00 | 82 | 1013.9 |
| 20260507192845 | 78 | 7 | 5.0 | 9.0 | 0.00 | 0.00 | 0.00 | 82 | 1013.9 |
| 20260507192342 | 78 | 26 | 4.0 | 10.0 | 0.00 | 0.00 | 0.00 | 82 | 1014.0 |
| 20260507191838 | 78 | 337 | 3.0 | 10.0 | 0.00 | 0.00 | 0.00 | 82 | 1014.1 |
| 20260507191334 | 78 | 33 | 6.0 | 11.0 | 0.00 | 0.00 | 0.00 | 82 | 1014.0 |
| 20260507190831 | 78 | 344 | 3.0 | 6.0 | 0.00 | 0.00 | 0.00 | 83 | 1014.0 |
| 20260507190330 | 78 | 42 | 5.0 | 8.0 | 0.00 | 0.00 | 0.00 | 83 | 1014.1 |
| 20260507185829 | 77 | 16 | 4.0 | 10.0 | 0.00 | 0.00 | 0.00 | 83 | 1014.3 |
| 20260507185325 | 78 | 16 | 4.0 | 8.0 | 0.00 | 0.00 | 0.00 | 83 | 1014.2 |
| 20260507184822 | 78 | 24 | 4.0 | 5.0 | 0.00 | 0.00 | 0.00 | 83 | 1014.3 |
| 20260507184320 | 77 | 11 | 5.0 | 9.0 | 0.00 | 0.00 | 0.00 | 85 | 1014.2 |
| 20260507183816 | 76 | 347 | 5.0 | 9.0 | 0.00 | 0.00 | 0.00 | 85 | 1014.2 |
| 20260507183314 | 76 | 74 | 3.0 | 10.0 | 0.00 | 0.00 | 0.00 | 85 | 1014.5 |
| 20260507182811 | 76 | 44 | 8.0 | 9.0 | 0.00 | 0.00 | 0.00 | 86 | 1014.5 |
| 20260507182307 | 76 | 38 | 9.0 | 13.0 | 0.00 | 0.00 | 0.00 | 85 | 1014.8 |
| 20260507181803 | 75 | 58 | 4.0 | 12.0 | 0.00 | 0.00 | 0.00 | 86 | 1014.7 |
| 20260507181259 | 75 | 27 | 1.0 | 6.0 | 0.00 | 0.00 | 0.00 | 88 | 1014.8 |
| 20260507180756 | 75 | 325 | 4.0 | 6.0 | 0.00 | 0.00 | 0.00 | 87 | 1014.9 |
| 20260507180253 | 75 | 30 | 4.0 | 6.0 | 0.00 | 0.00 | 0.00 | 88 | 1015.1 |